sat.trackr.live / text

‹ back to catalog

YAOGAN-40 02B

NORAD 63919 · 2025-096B

PAYLOAD ACTIVE UNKNOWN

§ Identity

Operator
Country
PRC
Launch date
2025-05-11
Launch site
TAISC
Launch vehicle
Mass (kg)
RCS (m²)

External: N2YO · Heavens-Above · Gunter

§ Orbital elements

Epoch: 2026-09-21T21:50:32.777376Z

Period
101.95 min
Inclination
85.9966°
Eccentricity
0.0001764
Mean motion
14.12462178 rev/d
Perigee alt
849.7 km
Apogee alt
852.2 km
Semi-major
7,229.1 km
B*
3.9089e-5
RAAN
144.6242°
Arg perigee
87.6049°
Mean anomaly
272.5336°
Rev number
7,022

§ Raw data

YAOGAN-40 02B1 63919U 25096B   26264.91010159  .00000091  00000+0  39089-4 0  99982 63919  85.9966 144.6242 0001764  87.6049 272.5336 14.12462178 70223

JSON: /api/v1/satellites/63919 · /tle

For live sub-satellite position, see the globe view (requires WebGL).

§ Visibility from observer

Set your observer location to see the next 7 days of passes ≥ 10°. The values pass through the URL so the page stays shareable.

No JS? Fill the form by hand. The geolocation button needs JavaScript.